Weather History for LFME - May, 2014

Change the Weather History Date:

Monday, May 12, 2014

  Actual Average Record
Temperature  
Mean Temperature 64 °F -  
Max Temperature 74 °F - - ()
Min Temperature 54 °F - - ()
Degree Days  
Heating Degree Days 1    
Growing Degree Days 14 (Base 50)    
Moisture  
Dew Point 36 °F    
Average Humidity 27    
Maximum Humidity 41    
Minimum Humidity 13    
Precipitation  
Precipitation 0.00 in - - ()
Sea Level Pressure  
Sea Level Pressure 30.04 in    
Wind  
Wind Speed 6 mph ()    
Max Wind Speed 12 mph    
Max Gust Speed -    
Visibility 18.2 miles    
Events      
T = Trace of Precipitation, MM = Missing Value Source: Averaged Metar Reports

Daily Weather History Graph

Daily Weather History Graph

Search for Another Location

Airport or City:

Trip Planner

Search our weather history database for the weather conditions in past years. The results will help you decide how hot, cold, wet, or windy it might be!

Date:

Astronomy

May. 12, 2014 Rise Set
Actual Time 6:20 AM CEST 8:57 PM CEST
Civil Twilight 5:47 AM CEST 9:30 PM CEST
Nautical Twilight 5:06 AM CEST 10:12 PM CEST
Astronomical Twilight 4:19 AM CEST 10:59 PM CEST
Moon 6:34 PM CEST (5/12) 4:56 AM CEST (5/12)
Length of Visible Light 15h 43m
Length of Day
14h 37m
Waxing Gibbous, 93% of the Moon is Illuminated
May 12
Waxing Gibbous
May 14
Full
May 21
Last Quarter
May 28
New
Jun 5
First Quarter

Hourly Weather History & Observations

Time (CEST) Temp. Dew Point Humidity Pressure Visibility Wind Dir Wind Speed Gust Speed Precip Events Conditions
12:00 AM 61 °F 39 °F 32% 30.08 in - North 4.6 mph - -  
1:00 AM 59 °F 38 °F 33% 30.09 in - North 3.5 mph - -  
2:00 AM 58 °F 37 °F 34% 30.08 in - NNW 9.2 mph - -  
3:00 AM 56 °F 39 °F 41% 30.10 in - SE 3.5 mph - -  
4:00 AM 57 °F 37 °F 35% 30.10 in - NW 5.8 mph - -  
5:00 AM 56 °F 37 °F 37% 30.08 in - NNW 5.8 mph - -  
6:00 AM 55 °F 37 °F 40% 30.07 in 16 mi WNW 4.6 mph - -   Clear
7:00 AM 56 °F 37 °F 37% 30.08 in - NW 5.8 mph - -  
8:00 AM 56 °F 38 °F 40% 30.09 in 19 mi NW 6.9 mph - -   Scattered Clouds
10:00 AM 62 °F 39 °F 31% 30.08 in - NW 8.1 mph - -  
11:00 AM 65 °F 36 °F 22% 30.07 in 19 mi North 9.2 mph - -   Mostly Cloudy
12:00 PM 65 °F 39 °F 27% 30.06 in - NW 5.8 mph - -  
1:00 PM 67 °F 38 °F 23% 30.05 in - WNW 8.1 mph - -  
2:00 PM 69 °F 36 °F 19% 30.02 in 19 mi WNW 6.9 mph - -   Scattered Clouds
3:00 PM 72 °F 36 °F 17% 30.00 in - North 5.8 mph - -  
4:00 PM 73 °F 36 °F 16% 29.98 in - NNW 6.9 mph - -  
5:00 PM 71 °F 32 °F 14% 29.96 in 22 mi West 5.8 mph - -   Scattered Clouds
6:00 PM 71 °F 33 °F 14% 29.96 in - NNW 8.1 mph - -  
7:00 PM 69 °F 31 °F 14% 29.96 in - WNW 9.2 mph - -  
8:00 PM 68 °F 29 °F 13% 29.97 in - WNW 9.2 mph - -  
9:00 PM 66 °F 33 °F 18% 29.99 in - NW 11.5 mph - -  
10:00 PM 63 °F 35 °F 24% 30.01 in - WNW 8.1 mph - -  
11:00 PM 60 °F 36 °F 30% 30.03 in - NW 9.2 mph - -